Fecha, hora, temperatura, viento dirección y velocidad, humedad y presión.

  • 19-03-2019 23:00:00 | 0.30°C | Noroeste |9.00 km/h | 92.00% | 0.00 hPa
  • 19-03-2019 22:00:00 | 0.40°C | Noroeste |12.00 km/h | 92.00% | 0.00 hPa
  • 19-03-2019 21:00:00 | 0.60°C | Noroeste |11.00 km/h | 92.00% | 0.00 hPa
  • 19-03-2019 20:00:00 | 0.60°C | Noroeste |10.00 km/h | 92.00% | 0.00 hPa
  • 19-03-2019 19:00:00 | 0.90°C | Noroeste |9.00 km/h | 92.00% | 0.00 hPa
  • 19-03-2019 18:00:00 | 0.90°C | Noroeste |9.00 km/h | 92.00% | 0.00 hPa
  • 19-03-2019 17:00:00 | 0.80°C | Noroeste |9.00 km/h | 92.00% | 0.00 hPa
  • 19-03-2019 16:00:00 | 0.00°C | 0 |0.00 km/h | 0.00% | 0.00 hPa
  • 19-03-2019 15:00:00 | 0.60°C | Noroeste |14.00 km/h | 92.00% | 0.00 hPa
  • 19-03-2019 14:00:00 | 0.50°C | Noroeste |8.00 km/h | 92.00% | 0.00 hPa
  • 19-03-2019 13:00:00 | 0.30°C | Noroeste |7.00 km/h | 92.00% | 0.00 hPa
  • 19-03-2019 12:00:00 | 0.10°C | Noroeste |8.00 km/h | 92.00% | 0.00 hPa
  • 19-03-2019 11:00:00 | 0.00°C | Noroeste |10.00 km/h | 92.00% | 0.00 hPa
  • 19-03-2019 10:00:00 | -0.10°C | Noroeste |9.00 km/h | 92.00% | 0.00 hPa
  • 19-03-2019 09:00:00 | -0.40°C | Noroeste |10.00 km/h | 92.00% | 0.00 hPa
  • 19-03-2019 08:00:00 | -0.70°C | Noroeste |11.00 km/h | 92.00% | 0.00 hPa
  • 19-03-2019 07:00:00 | -0.80°C | Noroeste |13.00 km/h | 92.00% | 0.00 hPa
  • 19-03-2019 06:00:00 | -0.80°C | Noroeste |12.00 km/h | 92.00% | 0.00 hPa
  • 19-03-2019 05:00:00 | -1.00°C | Noroeste |14.00 km/h | 92.00% | 0.00 hPa
  • 19-03-2019 04:00:00 | -1.30°C | Noroeste |18.00 km/h | 92.00% | 0.00 hPa
  • 19-03-2019 03:00:00 | -1.30°C | Noroeste |17.00 km/h | 92.00% | 0.00 hPa
  • 19-03-2019 02:00:00 | -1.30°C | Noroeste |20.00 km/h | 92.00% | 0.00 hPa
  • 19-03-2019 01:00:00 | -1.20°C | Noroeste |13.00 km/h | 92.00% | 0.00 hPa
  • 19-03-2019 00:00:00 | -0.80°C | Noroeste |16.00 km/h | 92.00% | 0.00 hPa
    • diseño web asturias Información sobre el estado de las mareas, altura de la marejada, temperatura del agua y otros datos de Gijón en Asturias.

      Surf Gijón